CW4206 Weather Reports


time (UTC)temp
C
wind
direction
speed
KPH
gust
KPH
rain 1hr
cm
rain 24hr
cm
rain mn
cm
humidity
%
barometer
mb
20260510190531 31 226 0.0 6.4 0.00 0.00 0.00 31 1013.7
20260510190056 31 190 1.6 4.8 0.00 0.00 0.00 33 1013.9
20260510185533 30 161 0.0 8.0 0.00 0.00 0.00 31 1013.9
20260510185033 30 0 0.0 9.7 0.00 0.00 0.00 32 1013.9
20260510184544 31 94 1.6 9.7 0.00 0.00 0.00 28 1013.9
20260510184032 30 213 0.0 9.7 0.00 0.00 0.00 30 1013.9
20260510183532 30 0 0.0 3.2 0.00 0.00 0.00 32 1014.0
20260510183040 30 350 0.0 4.8 0.00 0.00 0.00 33 1014.0
20260510182532 30 296 0.0 4.8 0.00 0.00 0.00 35 1014.0
20260510182033 30 352 0.0 3.2 0.00 0.00 0.00 30 1013.9
20260510181603 30 0 0.0 3.2 0.00 0.00 0.00 32 1013.8
20260510181033 30 285 0.0 3.2 0.00 0.00 0.00 34 1013.9
20260510180532 30 0 0.0 3.2 0.00 0.00 0.00 30 1014.0
20260510180052 30 0 0.0 6.4 0.00 0.00 0.00 35 1014.1
20260510175535 30 0 0.0 6.4 0.00 0.00 0.00 32 1014.2
20260510175032 29 0 0.0 4.8 0.00 0.00 0.00 35 1014.1
20260510174557 30 221 0.0 6.4 0.00 0.00 0.00 33 1014.2
20260510174031 29 236 0.0 6.4 0.00 0.00 0.00 32 1014.1
20260510173534 29 160 1.6 6.4 0.00 0.00 0.00 33 1014.1
20260510173046 29 47 0.0 3.2 0.00 0.00 0.00 31 1014.2
20260510172532 29 0 0.0 3.2 0.00 0.00 0.00 34 1014.2
20260510172033 29 0 0.0 4.8 0.00 0.00 0.00 39 1014.3
20260510171557 29 0 1.6 4.8 0.00 0.00 0.00 32 1014.2
20260510171033 28 0 0.0 6.4 0.00 0.00 0.00 35 1014.4
20260510170531 28 0 0.0 6.4 0.00 0.00 0.00 36 1014.4
20260510170050 28 0 1.6 6.4 0.00 0.00 0.00 32 1014.3
20260510165531 28 0 1.6 6.4 0.00 0.00 0.00 36 1014.4
20260510165032 28 275 0.0 6.4 0.00 0.00 0.00 37 1014.4
20260510164542 28 231 0.0 6.4 0.00 0.00 0.00 35 1014.4
20260510164033 28 0 0.0 4.8 0.00 0.00 0.00 33 1014.6
20260510163533 28 0 0.0 4.8 0.00 0.00 0.00 35 1014.6
20260510163057 28 0 0.0 4.8 0.00 0.00 0.00 37 1014.6
20260510162529 28 0 0.0 3.2 0.00 0.00 0.00 36 1014.6
20260510162031 28 0 0.0 4.8 0.00 0.00 0.00 38 1014.6
20260510161546 27 0 0.0 4.8 0.00 0.00 0.00 37 1014.6
20260510161032 27 0 0.0 4.8 0.00 0.00 0.00 40 1014.6
20260510160533 27 0 0.0 3.2 0.00 0.00 0.00 42 1014.6
20260510160044 27 0 0.0 3.2 0.00 0.00 0.00 39 1014.6
20260510155533 27 0 0.0 3.2 0.00 0.00 0.00 39 1014.7
20260510155032 27 0 0.0 3.2 0.00 0.00 0.00 41 1014.9
20260510154547 26 257 0.0 1.6 0.00 0.00 0.00 45 1015.0
20260510154033 26 0 0.0 3.2 0.00 0.00 0.00 46 1015.0
20260510153534 26 0 0.0 4.8 0.00 0.00 0.00 49 1015.0
20260510153046 26 0 0.0 4.8 0.00 0.00 0.00 45 1015.1
20260510152530 26 142 0.0 4.8 0.00 0.00 0.00 47 1015.1
20260510152033 26 49 0.0 4.8 0.00 0.00 0.00 53 1015.1
20260510151545 26 138 0.0 4.8 0.00 0.00 0.00 51 1015.0
20260510151029 25 0 0.0 4.8 0.00 0.00 0.00 53 1015.0
20260510150530 25 263 0.0 4.8 0.00 0.00 0.00 47 1015.1
20260510150050 25 57 0.0 3.2 0.00 0.00 0.00 49 1015.0
20260510145529 24 0 0.0 3.2 0.00 0.00 0.00 50 1015.1
20260510145032 24 57 0.0 3.2 0.00 0.00 0.00 55 1015.0
20260510144556 23 57 0.0 1.6 0.00 0.00 0.00 59 1015.0
20260510144030 23 0 0.0 1.6 0.00 0.00 0.00 55 1014.7
20260510143533 23 0 0.0 1.6 0.00 0.00 0.00 56 1014.8
20260510143043 23 0 0.0 3.2 0.00 0.00 0.00 63 1014.9
20260510142532 23 0 0.0 3.2 0.00 0.00 0.00 65 1014.8
20260510142033 22 0 0.0 3.2 0.00 0.00 0.00 67 1014.7
20260510141546 22 0 0.0 1.6 0.00 0.00 0.00 67 1014.7
20260510141034 22 0 0.0 1.6 0.00 0.00 0.00 64 1014.7
20260510140533 22 131 0.0 1.6 0.00 0.00 0.00 67 1014.7
20260510140047 22 131 0.0 1.6 0.00 0.00 0.00 69 1014.7
20260510135533 21 0 0.0 1.6 0.00 0.00 0.00 73 1014.8
20260510135033 21 244 0.0 3.2 0.00 0.00 0.00 74 1014.9
20260510134544 21 0 0.0 3.2 0.00 0.00 0.00 77 1014.9
20260510134031 20 266 0.0 3.2 0.00 0.00 0.00 78 1014.9
20260510133531 20 266 0.0 3.2 0.00 0.00 0.00 81 1014.6
20260510133049 19 0 0.0 1.6 0.00 0.00 0.00 83 1014.8
20260510132530 19 227 0.0 1.6 0.00 0.00 0.00 88 1014.9
20260510132158 18 227 0.0 1.6 0.00 0.00 0.00 89 1014.8
20260510131545 18 0 0.0 1.6 0.00 0.00 0.00 90 1014.7
20260510131032 17 0 0.0 1.6 0.00 0.00 0.00 94 1014.7
20260510130530 17 0 0.0 1.6 0.00 0.00 0.00 95 1014.6
20260510130048 17 0 0.0 1.6 0.00 0.00 0.00 98 1014.5
20260510125532 17 0 0.0 1.6 0.00 0.00 0.00 99 1014.6
20260510125033 16 0 0.0 1.6 0.00 0.00 0.00 99 1014.5
20260510124542 16 0 0.0 0.0 0.00 0.00 0.00 100 1014.4
20260510124032 16 0 0.0 0.0 0.00 0.00 0.00 100 1014.4
20260510123532 15 0 0.0 0.0 0.00 0.00 0.00 100 1014.4
20260510123042 15 0 0.0 0.0 0.00 0.00 0.00 99 1014.4
20260510122531 15 0 0.0 0.0 0.00 0.00 0.00 99 1014.5
20260510122032 14 0 0.0 0.0 0.00 0.00 0.00 99 1014.5
20260510121547 14 0 0.0 0.0 0.00 0.00 0.00 99 1014.5
20260510121032 13 0 0.0 0.0 0.00 0.00 0.00 99 1014.4
20260510120534 13 0 0.0 0.0 0.00 0.00 0.00 98 1014.4
20260510120043 13 0 0.0 0.0 0.00 0.00 0.00 98 1014.4
20260510115550 13 0 0.0 0.0 0.00 0.00 0.00 98 1014.3
20260510115031 13 0 0.0 0.0 0.00 0.00 0.00 98 1014.3
20260510114558 13 0 0.0 0.0 0.00 0.00 0.00 98 1014.1
20260510114032 12 0 0.0 0.0 0.00 0.00 0.00 98 1014.1
20260510113531 12 0 0.0 0.0 0.00 0.00 0.00 97 1014.0
20260510113051 12 0 0.0 0.0 0.00 0.00 0.00 98 1013.9
20260510112531 12 0 0.0 0.0 0.00 0.00 0.00 98 1013.9
20260510112034 12 0 0.0 0.0 0.00 0.00 0.00 97 1013.8
20260510111545 12 0 0.0 0.0 0.00 0.00 0.00 97 1013.6
20260510111032 12 0 0.0 0.0 0.00 0.00 0.00 97 1013.7
20260510110532 12 0 0.0 0.0 0.00 0.00 0.00 97 1013.5
20260510110051 12 0 0.0 0.0 0.00 0.00 0.00 97 1013.5
20260510105533 12 0 0.0 0.0 0.00 0.00 0.00 97 1013.5
20260510105033 12 0 0.0 0.0 0.00 0.00 0.00 96 1013.3
20260510104547 12 0 0.0 0.0 0.00 0.00 0.00 97 1013.2
20260510104032 12 0 0.0 0.0 0.00 0.00 0.00 97 1013.1
20260510103532 12 0 0.0 0.0 0.00 0.00 0.00 97 1013.1
20260510103052 12 0 0.0 0.0 0.00 0.00 0.00 97 1013.0
20260510102532 12 0 0.0 0.0 0.00 0.00 0.00 97 1013.0
20260510102033 12 0 0.0 0.0 0.00 0.00 0.00 97 1012.9
20260510101558 12 0 0.0 0.0 0.00 0.00 0.00 97 1012.9
20260510101032 12 0 0.0 0.0 0.00 0.00 0.00 97 1012.9
20260510100530 12 0 0.0 0.0 0.00 0.00 0.00 96 1013.0
20260510100050 12 0 0.0 0.0 0.00 0.00 0.00 96 1012.8
20260510095532 12 0 0.0 0.0 0.00 0.00 0.00 96 1012.8
20260510095035 12 0 0.0 0.0 0.00 0.00 0.00 96 1012.7
20260510094554 12 0 0.0 0.0 0.00 0.00 0.00 96 1012.8
20260510094028 12 0 0.0 0.0 0.00 0.00 0.00 96 1012.8
20260510093532 12 0 0.0 0.0 0.00 0.00 0.00 96 1012.6
20260510093050 12 0 0.0 0.0 0.00 0.00 0.00 96 1012.5
20260510092530 12 0 0.0 0.0 0.00 0.00 0.00 96 1012.4
20260510092032 13 0 0.0 0.0 0.00 0.00 0.00 96 1012.5
20260510091548 13 0 0.0 0.0 0.00 0.00 0.00 96 1012.4
20260510091033 13 0 0.0 0.0 0.00 0.00 0.00 96 1012.4
20260510090532 13 0 0.0 0.0 0.00 0.00 0.00 96 1012.3
20260510090045 13 0 0.0 0.0 0.00 0.00 0.00 96 1012.2
20260510085532 13 0 0.0 0.0 0.00 0.00 0.00 96 1012.3
20260510085030 13 0 0.0 0.0 0.00 0.00 0.00 96 1012.3
20260510084549 13 0 0.0 0.0 0.00 0.00 0.00 96 1012.2
20260510084031 13 0 0.0 0.0 0.00 0.00 0.00 96 1012.1
20260510083531 13 0 0.0 0.0 0.00 0.00 0.00 96 1012.0
20260510083053 13 0 0.0 0.0 0.00 0.00 0.00 96 1011.9
20260510082531 13 0 0.0 0.0 0.00 0.00 0.00 97 1011.8
20260510082029 13 0 0.0 0.0 0.00 0.00 0.00 97 1011.8
20260510081551 13 0 0.0 0.0 0.00 0.00 0.00 97 1011.8
20260510081030 13 0 0.0 0.0 0.00 0.00 0.00 97 1011.8
20260510080529 13 0 0.0 0.0 0.00 0.00 0.00 96 1011.7
20260510080055 13 0 0.0 0.0 0.00 0.00 0.00 96 1011.6
20260510075529 13 0 0.0 0.0 0.00 0.00 0.00 96 1011.6
20260510075029 14 0 0.0 0.0 0.00 0.00 0.00 96 1011.6
20260510074550 14 0 0.0 0.0 0.00 0.00 0.00 96 1011.7
20260510074031 14 0 0.0 0.0 0.00 0.00 0.00 96 1011.6
20260510073529 14 0 0.0 0.0 0.00 0.00 0.00 96 1011.7
20260510073055 14 0 0.0 0.0 0.00 0.00 0.00 96 1011.6
20260510072530 14 0 0.0 0.0 0.00 0.00 0.00 97 1011.5
20260510072030 14 0 0.0 0.0 0.00 0.00 0.00 97 1011.5
20260510071549 14 0 0.0 0.0 0.00 0.00 0.00 97 1011.5
20260510071029 14 0 0.0 0.0 0.00 0.00 0.00 97 1011.4
20260510070530 14 0 0.0 0.0 0.00 0.00 0.00 96 1011.3
20260510065533 14 0 0.0 0.0 0.00 0.00 0.00 96 1011.3
20260510065032 14 0 0.0 0.0 0.00 0.00 0.00 95 1011.3
20260510064548 14 0 0.0 0.0 0.00 0.00 0.00 96 1011.5
20260510064029 14 0 0.0 0.0 0.00 0.00 0.00 96 1011.5
20260510063529 14 0 0.0 0.0 0.00 0.00 0.00 96 1011.6
20260510063046 14 0 0.0 0.0 0.00 0.00 0.00 95 1011.6
20260510062532 14 0 0.0 0.0 0.00 0.00 0.00 95 1011.7
20260510062032 14 0 0.0 0.0 0.00 0.00 0.00 94 1011.6
20260510061545 14 0 0.0 0.0 0.00 0.00 0.00 94 1011.5
20260510061032 14 0 0.0 0.0 0.00 0.00 0.00 94 1011.6
20260510060533 15 0 0.0 0.0 0.00 0.00 0.00 95 1011.7
20260510060050 15 0 0.0 0.0 0.00 0.00 0.00 95 1011.8
20260510055539 15 0 0.0 0.0 0.00 0.00 0.00 94 1011.9
20260510055031 15 0 0.0 0.0 0.00 0.00 0.00 94 1011.8
20260510054544 15 0 0.0 0.0 0.00 0.00 0.00 95 1011.9
20260510054032 15 0 0.0 0.0 0.00 0.00 0.00 95 1012.0
20260510053531 15 0 0.0 0.0 0.00 0.00 0.00 95 1012.0
20260510053050 15 0 0.0 0.0 0.00 0.00 0.00 95 1012.0
20260510052531 15 0 0.0 0.0 0.00 0.00 0.00 95 1012.0
20260510052032 15 0 0.0 0.0 0.00 0.00 0.00 95 1012.1
20260510051602 15 0 0.0 0.0 0.00 0.00 0.00 94 1012.0
20260510051032 15 0 0.0 0.0 0.00 0.00 0.00 94 1012.1
20260510050532 15 0 0.0 0.0 0.00 0.00 0.00 94 1012.1
20260510050059 15 0 0.0 0.0 0.00 0.00 0.00 94 1012.1
20260510045531 15 0 0.0 0.0 0.00 0.00 0.00 94 1012.1
20260510045031 15 0 0.0 0.0 0.00 0.00 0.00 94 1012.1
20260510044547 15 0 0.0 0.0 0.00 0.00 0.00 94 1012.1
20260510044033 15 0 0.0 0.0 0.00 0.00 0.00 94 1012.1
20260510043532 15 0 0.0 0.0 0.00 0.00 0.00 93 1012.0
20260510043046 15 0 0.0 0.0 0.00 0.00 0.00 93 1012.0
20260510042530 15 0 0.0 0.0 0.00 0.00 0.00 92 1012.0
20260510042034 15 0 0.0 0.0 0.00 0.00 0.00 92 1012.0
20260510041543 15 0 0.0 0.0 0.00 0.00 0.00 92 1012.0
20260510041032 15 0 0.0 0.0 0.00 0.00 0.00 92 1011.8
20260510040533 16 0 0.0 0.0 0.00 0.00 0.00 92 1011.9
20260510040046 16 0 0.0 0.0 0.00 0.00 0.00 92 1011.7
20260510035531 16 0 0.0 0.0 0.00 0.00 0.00 92 1011.8
20260510035029 16 0 0.0 0.0 0.00 0.00 0.00 91 1011.9
20260510034543 16 0 0.0 0.0 0.00 0.00 0.00 91 1011.8
20260510034029 16 0 0.0 0.0 0.00 0.00 0.00 91 1011.7
20260510033534 16 0 0.0 0.0 0.00 0.00 0.00 91 1011.8
20260510033053 16 0 0.0 0.0 0.00 0.00 0.00 90 1011.7
20260510032533 16 0 0.0 0.0 0.00 0.00 0.00 90 1011.7
20260510032032 16 0 0.0 1.6 0.00 0.00 0.00 90 1011.6
20260510031548 16 0 0.0 3.2 0.00 0.00 0.00 89 1011.6
20260510031029 16 0 0.0 3.2 0.00 0.00 0.00 89 1011.6
20260510030530 16 0 0.0 0.0 0.00 0.00 0.00 89 1011.5
20260510030044 16 0 0.0 0.0 0.00 0.00 0.00 88 1011.6
20260510025532 17 0 0.0 0.0 0.00 0.00 0.00 87 1011.6
20260510025030 17 0 0.0 0.0 0.00 0.00 0.00 87 1011.5
20260510024545 17 0 0.0 0.0 0.00 0.00 0.00 86 1011.6
20260510024034 17 0 0.0 0.0 0.00 0.00 0.00 86 1011.4
20260510023533 17 0 0.0 0.0 0.00 0.00 0.00 86 1011.5
20260510023046 17 0 0.0 0.0 0.00 0.00 0.00 86 1011.5
20260510022534 17 0 0.0 1.6 0.00 0.00 0.00 86 1011.4
20260510022033 17 0 0.0 1.6 0.00 0.00 0.00 86 1011.3
20260510021636 17 0 0.0 4.8 0.00 0.00 0.00 85 1011.4
20260510021034 17 0 0.0 4.8 0.00 0.00 0.00 85 1011.3
20260510020533 17 0 0.0 0.0 0.00 0.00 0.00 85 1011.3
20260510020050 17 0 0.0 0.0 0.00 0.00 0.00 84 1011.2
20260510015536 17 0 0.0 0.0 0.00 0.00 0.00 84 1011.1
20260510015033 17 0 0.0 0.0 0.00 0.00 0.00 83 1011.1
20260510014553 17 0 0.0 0.0 0.00 0.00 0.00 82 1010.9
20260510014033 18 0 0.0 0.0 0.00 0.00 0.00 82 1011.0
20260510013534 18 0 0.0 0.0 0.00 0.00 0.00 81 1010.9
20260510013053 18 0 0.0 0.0 0.00 0.00 0.00 80 1010.8
20260510012535 18 0 0.0 0.0 0.00 0.00 0.00 80 1010.7
20260510012037 18 0 0.0 0.0 0.00 0.00 0.00 79 1010.8
20260510011549 18 0 0.0 0.0 0.00 0.00 0.00 78 1010.9
20260510011034 18 0 0.0 0.0 0.00 0.00 0.00 78 1010.9
20260510010533 19 0 0.0 0.0 0.00 0.00 0.00 78 1010.9
20260510010055 19 0 0.0 1.6 0.00 0.00 0.00 77 1010.9
20260510005533 19 0 0.0 6.4 0.00 0.00 0.00 77 1010.8
20260510005033 19 0 0.0 6.4 0.00 0.00 0.00 76 1010.8
20260510004548 19 232 0.0 3.2 0.00 0.00 0.00 76 1010.9
20260510004033 20 0 0.0 0.0 0.00 0.00 0.00 74 1010.7
20260510003533 20 0 0.0 0.0 0.00 0.00 0.00 74 1010.4
20260510003045 20 0 0.0 3.2 0.00 0.00 0.00 73 1010.4
20260510002534 20 0 0.0 3.2 0.00 0.00 0.00 73 1010.3
20260510002032 20 0 0.0 3.2 0.00 0.00 0.00 72 1010.4
20260510001549 20 0 0.0 1.6 0.00 0.00 0.00 71 1010.3
20260510001034 20 0 0.0 0.0 0.00 0.00 0.00 70 1010.2
20260510000533 20 0 0.0 0.0 0.00 0.00 0.00 70 1010.2
20260510000043 21 0 0.0 0.0 0.00 0.00 0.00 70 1010.0
20260509235532 21 0 0.0 1.6 0.00 0.00 0.00 70 1010.0
20260509235030 21 0 0.0 1.6 0.00 0.00 0.00 70 1009.9
20260509234545 21 0 0.0 1.6 0.00 0.00 0.00 69 1009.8
20260509234034 21 0 0.0 3.2 0.00 0.00 0.00 68 1009.8
20260509233533 21 0 0.0 4.8 0.00 0.00 0.00 68 1009.7
20260509233048 21 0 0.0 4.8 0.00 0.00 0.00 68 1009.7
20260509232533 21 0 0.0 4.8 0.00 0.00 0.00 67 1009.7
20260509232032 21 0 0.0 1.6 0.00 0.00 0.00 66 1009.7
20260509231547 22 0 0.0 3.2 0.00 0.00 0.00 66 1009.6
20260509231032 22 0 0.0 4.8 0.00 0.00 0.00 65 1009.7
20260509230535 22 232 0.0 4.8 0.00 0.00 0.00 65 1009.7
20260509230052 22 204 1.6 4.8 0.00 0.00 0.00 65 1009.7
20260509225534 22 0 0.0 4.8 0.00 0.00 0.00 66 1009.8
20260509225032 22 0 0.0 4.8 0.00 0.00 0.00 64 1009.8
20260509224549 22 0 0.0 4.8 0.00 0.00 0.00 64 1009.8
20260509224033 22 251 0.0 11.3 0.00 0.00 0.00 65 1009.7
20260509223535 22 211 0.0 11.3 0.00 0.00 0.00 65 1009.5
20260509223048 22 0 0.0 8.0 0.00 0.00 0.00 65 1009.5
20260509222533 22 235 1.6 8.0 0.00 0.00 0.00 64 1009.6
20260509222039 22 32 0.0 12.9 0.00 0.00 0.00 64 1009.6
20260509221711 22 184 0.0 12.9 0.00 0.00 0.00 64 1009.5
20260509221034 22 223 1.6 8.0 0.00 0.00 0.00 62 1009.7
20260509220531 23 224 0.0 11.3 0.00 0.00 0.00 65 1009.5
20260509220048 23 0 1.6 11.3 0.00 0.00 0.00 63 1009.4
20260509215534 23 0 0.0 3.2 0.00 0.00 0.00 65 1009.4
20260509215032 23 0 0.0 4.8 0.00 0.00 0.00 63 1009.4
20260509214549 23 0 0.0 4.8 0.00 0.00 0.00 63 1009.6
20260509214032 23 228 0.0 4.8 0.00 0.00 0.00 62 1009.5
20260509213533 23 0 1.6 4.8 0.00 0.00 0.00 64 1009.6
20260509213105 23 0 0.0 6.4 0.00 0.00 0.00 62 1009.5
20260509212532 23 246 0.0 8.0 0.00 0.00 0.00 64 1009.5
20260509212033 23 180 0.0 8.0 0.00 0.00 0.00 61 1009.5
20260509211559 23 313 0.0 4.8 0.00 0.00 0.00 64 1009.4
20260509211034 23 313 1.6 6.4 0.00 0.00 0.00 62 1009.4
20260509210534 23 0 0.0 6.4 0.00 0.00 0.00 62 1009.4
20260509210051 23 94 0.0 6.4 0.00 0.00 0.00 65 1009.4
20260509205533 23 0 0.0 4.8 0.00 0.00 0.00 67 1009.4
20260509205033 23 0 0.0 9.7 0.00 0.00 0.00 64 1009.3
20260509204543 23 224 0.0 9.7 0.00 0.00 0.00 62 1009.3
20260509204034 23 0 0.0 4.8 0.00 0.00 0.00 63 1009.3
20260509203533 23 238 0.0 8.0 0.00 0.00 0.00 60 1009.4
20260509203053 23 0 1.6 8.0 0.00 0.00 0.00 59 1009.5
20260509202537 23 233 3.2 8.0 0.00 0.00 0.00 61 1009.4
20260509202035 23 0 0.0 12.9 0.00 0.00 0.00 63 1009.4
20260509201544 23 193 1.6 12.9 0.00 0.00 0.00 60 1009.4
20260509201033 23 0 0.0 3.2 0.00 0.00 0.00 61 1009.3
20260509200534 23 0 0.0 4.8 0.00 0.00 0.00 61 1009.4
20260509200051 23 189 1.6 6.4 0.00 0.00 0.00 59 1009.2
20260509195533 23 71 1.6 6.4 0.00 0.00 0.00 61 1009.3
20260509195029 23 246 0.0 14.5 0.00 0.00 0.00 60 1009.4
20260509194556 23 86 1.6 14.5 0.00 0.00 0.00 60 1009.4
20260509194029 24 0 0.0 11.3 0.00 0.00 0.00 58 1009.5
20260509193533 24 282 0.0 11.3 0.00 0.00 0.00 59 1009.6
20260509193047 25 0 1.6 11.3 0.00 0.00 0.00 55 1009.7
20260509192533 25 205 1.6 6.4 0.00 0.00 0.00 54 1009.7
20260509192031 26 0 0.0 8.0 0.00 0.00 0.00 53 1009.8
20260509191557 26 0 1.6 8.0 0.00 0.00 0.00 54 1009.7
20260509191032 25 121 1.6 9.7 0.00 0.00 0.00 55 1009.9